Location: Newark
(46.7000°N, 60.6000°W)
Time: 23:42:57
(UTC+00:00)

Vanguard 3 - Pass Details

Date: 05 November 2020
Orbit: 508 x 3262 km, 33.3° (Epoch: 29 November)

Event Time Altitude Azimuth Distance (km) Brightness Sun altitude
Rises 12:09:13 0° 272° (W) 6,590 11.3 10.7°
Reaches altitude 10° 12:13:39 10° 266° (W) 5,825 11.1 11.3°
Maximum altitude 12:30:24 41° 206° (SSW) 4,179 11.1 13.5°
Drops below altitude 10° 12:46:41 10° 145° (SE) 5,646 13.8 15.6°
Sets 12:50:57 0° 138° (SE) 6,375 13.6 16.1°
